AVA9295 SKCL-SKPS

Flight info

Callsign AVA9295
Flight time 0h 51m
Altitude 20000
Route ISOPA4B ISOPA G675 MER
Aircraft A320/M-SDE3FGHIRWY/LB1

Departure

Time 2026-05-06 18:12
Airport Alfonso Bonilla Aragon International Airport (SKCL)

Arrival

Time 2026-05-06 19:03
Airport Antonio Nariño Airport (SKPS)
Time Latitude Longitude Altitude Speed Heading
2026-05-06 17:44 3.53856 -76.38739 3163 ft 0 kts 201°
2026-05-06 18:00 3.53869 -76.38734 3163 ft 3 kts 201°
2026-05-06 18:00 3.53890 -76.38727 3163 ft 3 kts 185°
2026-05-06 18:00 3.53909 -76.38730 3165 ft 3 kts 139°
2026-05-06 18:01 3.53919 -76.38744 3163 ft 1 kts 95°
2026-05-06 18:01 3.53919 -76.38749 3163 ft 0 kts 95°
2026-05-06 18:03 3.53919 -76.38745 3163 ft 3 kts 95°
2026-05-06 18:03 3.53916 -76.38718 3163 ft 4 kts 96°
2026-05-06 18:03 3.53912 -76.38691 3163 ft 4 kts 99°
2026-05-06 18:04 3.53896 -76.38654 3165 ft 8 kts 134°
2026-05-06 18:04 3.53861 -76.38605 3164 ft 10 kts 103°
2026-05-06 18:04 3.53881 -76.38548 3164 ft 8 kts 46°
2026-05-06 18:04 3.53932 -76.38506 3164 ft 11 kts 39°
2026-05-06 18:05 3.53996 -76.38453 3164 ft 12 kts 40°
2026-05-06 18:05 3.54056 -76.38402 3165 ft 11 kts 40°
2026-05-06 18:05 3.54129 -76.38364 3165 ft 13 kts 14°
2026-05-06 18:05 3.54222 -76.38348 3165 ft 14 kts
2026-05-06 18:06 3.54315 -76.38332 3168 ft 14 kts
2026-05-06 18:06 3.54417 -76.38314 3165 ft 16 kts 10°
2026-05-06 18:06 3.54533 -76.38294 3164 ft 17 kts 10°
2026-05-06 18:06 3.54647 -76.38273 3164 ft 16 kts 10°
2026-05-06 18:07 3.54757 -76.38254 3165 ft 16 kts
2026-05-06 18:07 3.54872 -76.38236 3165 ft 17 kts
2026-05-06 18:07 3.54991 -76.38214 3166 ft 18 kts
2026-05-06 18:07 3.55114 -76.38194 3167 ft 18 kts
2026-05-06 18:08 3.55238 -76.38173 3169 ft 18 kts 10°
2026-05-06 18:08 3.55361 -76.38151 3171 ft 18 kts 10°
2026-05-06 18:08 3.55483 -76.38129 3174 ft 17 kts 10°
2026-05-06 18:08 3.55600 -76.38109 3176 ft 17 kts
2026-05-06 18:09 3.55665 -76.38061 3176 ft 12 kts 85°
2026-05-06 18:09 3.55653 -76.37976 3175 ft 13 kts 99°
2026-05-06 18:09 3.55636 -76.37940 3174 ft 4 kts 166°
2026-05-06 18:09 3.55619 -76.37941 3174 ft 0 kts 188°
2026-05-06 18:11 3.55618 -76.37941 3173 ft 0 kts 188°
2026-05-06 18:11 3.55442 -76.37970 3172 ft 63 kts 191°
2026-05-06 18:11 3.54776 -76.38087 3161 ft 128 kts 190°
2026-05-06 18:12 3.53727 -76.38270 3180 ft 176 kts 190°
2026-05-06 18:12 3.52510 -76.38488 3809 ft 179 kts 190°
2026-05-06 18:12 3.51273 -76.38709 4473 ft 182 kts 190°
2026-05-06 18:12 3.50036 -76.38925 5111 ft 179 kts 190°
2026-05-06 18:13 3.48810 -76.39136 5702 ft 179 kts 191°
2026-05-06 18:13 3.47983 -76.39278 6099 ft 178 kts 191°
2026-05-06 18:13 3.46732 -76.39493 6498 ft 191 kts 192°
2026-05-06 18:13 3.45352 -76.39736 6690 ft 212 kts 191°
2026-05-06 18:14 3.43820 -76.40006 6857 ft 236 kts 191°
2026-05-06 18:14 3.42119 -76.40303 7145 ft 260 kts 190°
2026-05-06 18:14 3.40270 -76.40645 7560 ft 278 kts 195°
2026-05-06 18:14 3.38458 -76.41396 8240 ft 285 kts 205°
2026-05-06 18:15 3.36672 -76.42233 8979 ft 289 kts 204°
2026-05-06 18:15 3.34829 -76.43081 9693 ft 293 kts 204°
2026-05-06 18:15 3.32958 -76.43938 10391 ft 298 kts 204°
2026-05-06 18:15 3.31062 -76.44807 11085 ft 302 kts 204°
2026-05-06 18:16 3.29138 -76.45691 11763 ft 307 kts 203°
2026-05-06 18:16 3.27182 -76.46593 12429 ft 312 kts 203°
2026-05-06 18:16 3.25199 -76.47510 13101 ft 316 kts 203°
2026-05-06 18:16 3.23132 -76.48460 13313 ft 338 kts 203°
2026-05-06 18:17 3.20930 -76.49470 13433 ft 359 kts 203°
2026-05-06 18:17 3.18602 -76.50542 13635 ft 375 kts 203°
2026-05-06 18:17 3.16207 -76.51650 14108 ft 382 kts 203°
2026-05-06 18:17 3.13779 -76.52777 14675 ft 387 kts 203°
2026-05-06 18:18 3.11329 -76.53914 15257 ft 390 kts 203°
2026-05-06 18:18 3.08857 -76.55059 15813 ft 393 kts 203°
2026-05-06 18:18 3.06361 -76.56209 16369 ft 397 kts 203°
2026-05-06 18:18 3.03843 -76.57367 16889 ft 400 kts 203°
2026-05-06 18:19 3.01302 -76.58534 17415 ft 403 kts 203°
2026-05-06 18:19 2.98744 -76.59713 17912 ft 406 kts 203°
2026-05-06 18:19 2.96167 -76.60906 18416 ft 410 kts 203°
2026-05-06 18:19 2.93570 -76.62109 18885 ft 413 kts 203°
2026-05-06 18:20 2.90957 -76.63321 19348 ft 416 kts 203°
2026-05-06 18:20 2.88327 -76.64542 19803 ft 418 kts 203°
2026-05-06 18:20 2.85676 -76.65770 20078 ft 420 kts 203°
2026-05-06 18:20 2.83003 -76.67003 20146 ft 428 kts 203°
2026-05-06 18:21 2.80257 -76.68267 20150 ft 439 kts 203°
2026-05-06 18:21 2.77473 -76.69551 20159 ft 442 kts 203°
2026-05-06 18:21 2.74681 -76.70844 20166 ft 442 kts 203°
2026-05-06 18:21 2.71886 -76.72139 20175 ft 442 kts 203°
2026-05-06 18:22 2.69093 -76.73430 20180 ft 442 kts 203°
2026-05-06 18:22 2.66302 -76.74719 20183 ft 443 kts 203°
2026-05-06 18:22 2.63507 -76.76009 20184 ft 442 kts 203°
2026-05-06 18:22 2.60712 -76.77301 20194 ft 442 kts 203°
2026-05-06 18:23 2.57923 -76.78592 20192 ft 442 kts 203°
2026-05-06 18:23 2.55135 -76.79883 20191 ft 441 kts 203°
2026-05-06 18:23 2.52350 -76.81169 20189 ft 441 kts 203°
2026-05-06 18:23 2.49562 -76.82452 20190 ft 441 kts 203°
2026-05-06 18:24 2.46772 -76.83734 20189 ft 441 kts 203°
2026-05-06 18:24 2.43978 -76.85020 20191 ft 441 kts 203°
2026-05-06 18:24 2.41190 -76.86306 20192 ft 442 kts 203°
2026-05-06 18:24 2.38405 -76.87597 20193 ft 441 kts 203°
2026-05-06 18:25 2.35617 -76.88889 20194 ft 442 kts 203°
2026-05-06 18:25 2.32830 -76.90181 20182 ft 440 kts 203°
2026-05-06 18:25 2.30089 -76.91452 19935 ft 429 kts 203°
2026-05-06 18:25 2.27398 -76.92698 19682 ft 425 kts 203°
2026-05-06 18:26 2.24723 -76.93933 19433 ft 422 kts 203°
2026-05-06 18:26 2.22099 -76.95143 19191 ft 420 kts 203°
2026-05-06 18:26 2.19452 -76.96366 18934 ft 418 kts 203°
2026-05-06 18:26 2.16817 -76.97584 18684 ft 417 kts 203°
2026-05-06 18:27 2.14190 -76.98803 18436 ft 416 kts 203°
2026-05-06 18:27 2.11570 -77.00016 18182 ft 415 kts 203°
2026-05-06 18:27 2.08984 -77.01210 17967 ft 401 kts 202°
2026-05-06 18:27 2.06539 -77.02341 17835 ft 374 kts 202°
2026-05-06 18:28 2.04254 -77.03403 17695 ft 351 kts 202°
2026-05-06 18:28 2.02084 -77.04414 17270 ft 339 kts 202°
2026-05-06 18:28 1.99962 -77.05398 16691 ft 334 kts 202°
2026-05-06 18:28 1.97868 -77.06365 16083 ft 330 kts 202°
2026-05-06 18:29 1.95795 -77.07322 15489 ft 326 kts 202°
2026-05-06 18:29 1.93745 -77.08268 14899 ft 323 kts 202°
2026-05-06 18:29 1.91717 -77.09206 14315 ft 320 kts 202°
2026-05-06 18:29 1.89706 -77.10137 13717 ft 317 kts 202°
2026-05-06 18:30 1.87716 -77.11058 13142 ft 314 kts 202°
2026-05-06 18:30 1.85744 -77.11968 12552 ft 311 kts 202°
2026-05-06 18:30 1.83791 -77.12871 12072 ft 307 kts 202°
2026-05-06 18:30 1.81899 -77.13748 11958 ft 291 kts 202°
2026-05-06 18:31 1.80074 -77.14594 11973 ft 288 kts 202°
2026-05-06 18:31 1.78299 -77.15426 11926 ft 277 kts 204°
2026-05-06 18:31 1.76603 -77.16294 11798 ft 270 kts 205°
2026-05-06 18:31 1.74968 -77.17173 11649 ft 264 kts 206°
2026-05-06 18:32 1.73380 -77.18041 11526 ft 256 kts 206°
2026-05-06 18:32 1.71839 -77.18883 11398 ft 249 kts 206°
2026-05-06 18:32 1.70339 -77.19702 11268 ft 242 kts 206°
2026-05-06 18:32 1.68868 -77.20497 11071 ft 239 kts 206°
2026-05-06 18:33 1.67408 -77.21283 10826 ft 238 kts 206°
2026-05-06 18:33 1.65960 -77.22061 10597 ft 236 kts 206°
2026-05-06 18:33 1.64536 -77.22825 10487 ft 227 kts 206°
2026-05-06 18:33 1.63176 -77.23555 10264 ft 219 kts 206°
2026-05-06 18:34 1.61842 -77.24269 10024 ft 216 kts 206°
2026-05-06 18:34 1.60514 -77.24976 9994 ft 217 kts 206°
2026-05-06 18:34 1.59181 -77.25688 9998 ft 218 kts 207°
2026-05-06 18:34 1.57843 -77.26403 10001 ft 218 kts 206°
2026-05-06 18:35 1.56505 -77.27120 10004 ft 218 kts 206°
2026-05-06 18:35 1.55167 -77.27836 10016 ft 218 kts 206°
2026-05-06 18:35 1.53830 -77.28553 10015 ft 219 kts 207°
2026-05-06 18:35 1.52508 -77.29260 10005 ft 209 kts 206°
2026-05-06 18:36 1.51277 -77.29890 9977 ft 189 kts 205°
2026-05-06 18:36 1.50137 -77.30460 9752 ft 176 kts 204°
2026-05-06 18:36 1.49070 -77.30990 9556 ft 168 kts 204°
2026-05-06 18:36 1.48028 -77.31508 9392 ft 167 kts 205°
2026-05-06 18:37 1.47005 -77.32017 9242 ft 166 kts 204°
2026-05-06 18:37 1.45971 -77.32532 9083 ft 166 kts 205°
2026-05-06 18:37 1.44939 -77.33047 8938 ft 165 kts 205°
2026-05-06 18:37 1.43911 -77.33560 8859 ft 165 kts 205°
2026-05-06 18:38 1.42904 -77.34063 8539 ft 162 kts 205°
2026-05-06 18:38 1.41917 -77.34558 8475 ft 158 kts 205°
2026-05-06 18:38 1.40915 -77.35057 8539 ft 161 kts 206°
2026-05-06 18:38 1.39911 -77.35556 8583 ft 161 kts 206°
2026-05-06 18:39 1.38906 -77.36058 8600 ft 162 kts 206°
2026-05-06 18:39 1.37856 -77.36464 8614 ft 161 kts 192°
2026-05-06 18:39 1.36740 -77.36511 8402 ft 159 kts 172°
2026-05-06 18:40 1.34797 -77.35539 7964 ft 159 kts 135°
2026-05-06 18:40 1.34166 -77.34636 7728 ft 159 kts 116°
2026-05-06 18:40 1.33866 -77.33573 7504 ft 160 kts 97°
2026-05-06 18:40 1.33929 -77.32463 7280 ft 161 kts 78°
2026-05-06 18:41 1.34351 -77.31432 7049 ft 161 kts 58°
2026-05-06 18:41 1.35097 -77.30597 6817 ft 162 kts 38°
2026-05-06 18:41 1.36081 -77.30060 6592 ft 162 kts 19°
2026-05-06 18:41 1.37159 -77.29780 6380 ft 160 kts 15°
2026-05-06 18:42 1.38238 -77.29486 6165 ft 164 kts 15°
2026-05-06 18:42 1.39458 -77.29150 6482 ft 193 kts 15°
2026-05-06 18:42 1.40768 -77.28792 7371 ft 199 kts 15°
2026-05-06 18:42 1.42095 -77.28452 8216 ft 194 kts 15°
2026-05-06 18:43 1.43395 -77.28108 8758 ft 192 kts 15°
2026-05-06 18:43 1.44682 -77.27767 9283 ft 190 kts 16°
2026-05-06 18:43 1.46040 -77.27558 9505 ft 209 kts
2026-05-06 18:43 1.47558 -77.27736 9627 ft 233 kts 347°
2026-05-06 18:44 1.49205 -77.28140 9934 ft 252 kts 348°
2026-05-06 18:44 1.50927 -77.28554 10565 ft 257 kts 348°
2026-05-06 18:44 1.52680 -77.28974 11230 ft 260 kts 348°
2026-05-06 18:44 1.54458 -77.29402 11818 ft 266 kts 349°
2026-05-06 18:45 1.56279 -77.29836 12135 ft 278 kts 349°
2026-05-06 18:45 1.58192 -77.30293 12215 ft 285 kts 348°
2026-05-06 18:45 1.60130 -77.30757 12226 ft 287 kts 348°
2026-05-06 18:45 1.61414 -77.31065 12226 ft 287 kts 348°
2026-05-06 18:46 1.64011 -77.31688 12229 ft 287 kts 349°
2026-05-06 18:46 1.65927 -77.32146 12228 ft 287 kts 349°
2026-05-06 18:46 1.67891 -77.32614 12230 ft 287 kts 349°
2026-05-06 18:46 1.69808 -77.33073 12230 ft 287 kts 348°
2026-05-06 18:47 1.71748 -77.33539 12230 ft 287 kts 348°
2026-05-06 18:47 1.73689 -77.34004 12228 ft 287 kts 349°
2026-05-06 18:47 1.75643 -77.34394 12222 ft 285 kts
2026-05-06 18:47 1.77559 -77.34067 12224 ft 280 kts 24°
2026-05-06 18:48 1.79341 -77.33238 12220 ft 278 kts 31°
2026-05-06 18:48 1.80988 -77.32270 12221 ft 278 kts 33°
2026-05-06 18:48 1.82659 -77.31249 12219 ft 278 kts 34°
2026-05-06 18:48 1.84305 -77.30238 12219 ft 278 kts 34°
2026-05-06 18:49 1.85930 -77.29238 12211 ft 278 kts 34°
2026-05-06 18:49 1.87575 -77.28226 12211 ft 278 kts 34°
2026-05-06 18:49 1.89221 -77.27214 12210 ft 278 kts 34°
2026-05-06 18:49 1.90847 -77.26175 12207 ft 276 kts 40°
2026-05-06 18:50 1.92026 -77.24704 12187 ft 272 kts 68°
2026-05-06 18:50 1.92397 -77.22881 12172 ft 269 kts 92°
2026-05-06 18:50 1.91981 -77.21070 12170 ft 269 kts 116°
2026-05-06 18:50 1.90845 -77.19586 12162 ft 272 kts 140°
2026-05-06 18:51 1.89179 -77.18691 12160 ft 276 kts 159°
2026-05-06 18:51 1.87357 -77.18068 12161 ft 277 kts 159°
2026-05-06 18:51 1.85530 -77.17442 12168 ft 278 kts 159°
2026-05-06 18:51 1.83707 -77.16812 12168 ft 277 kts 159°
2026-05-06 18:52 1.81893 -77.16184 12170 ft 271 kts 159°
2026-05-06 18:52 1.80107 -77.15738 12177 ft 260 kts 172°
2026-05-06 18:52 1.78344 -77.15796 12185 ft 249 kts 188°
2026-05-06 18:52 1.76719 -77.16307 12186 ft 244 kts 203°
2026-05-06 18:53 1.75212 -77.17105 12010 ft 245 kts 206°
2026-05-06 18:53 1.73720 -77.17907 11921 ft 243 kts 205°
2026-05-06 18:53 1.72237 -77.18703 11865 ft 242 kts 205°
2026-05-06 18:53 1.70751 -77.19500 11812 ft 242 kts 205°
2026-05-06 18:54 1.69272 -77.20291 11759 ft 241 kts 205°
2026-05-06 18:54 1.67795 -77.21081 11700 ft 240 kts 206°
2026-05-06 18:54 1.66325 -77.21867 11653 ft 240 kts 205°
2026-05-06 18:54 1.64856 -77.22653 11598 ft 239 kts 206°
2026-05-06 18:55 1.63387 -77.23439 11544 ft 240 kts 205°
2026-05-06 18:55 1.61913 -77.24227 11493 ft 240 kts 205°
2026-05-06 18:55 1.60442 -77.25014 11440 ft 240 kts 206°
2026-05-06 18:55 1.58971 -77.25800 11386 ft 239 kts 206°
2026-05-06 18:56 1.57505 -77.26583 11334 ft 239 kts 206°
2026-05-06 18:56 1.56039 -77.27365 11277 ft 239 kts 206°
2026-05-06 18:56 1.55071 -77.27883 11151 ft 238 kts 206°
2026-05-06 18:56 1.53611 -77.28665 10889 ft 236 kts 206°
2026-05-06 18:57 1.52179 -77.29426 10565 ft 229 kts 205°
2026-05-06 18:57 1.50800 -77.30128 10258 ft 215 kts 205°
2026-05-06 18:57 1.49511 -77.30773 10074 ft 196 kts 204°
2026-05-06 18:57 1.48373 -77.31340 9993 ft 173 kts 204°
2026-05-06 18:58 1.47300 -77.31872 9677 ft 173 kts 204°
2026-05-06 18:58 1.46233 -77.32403 9338 ft 169 kts 204°
2026-05-06 18:58 1.45193 -77.32922 9075 ft 166 kts 205°
2026-05-06 18:58 1.44167 -77.33435 8869 ft 164 kts 205°
2026-05-06 18:59 1.43151 -77.33942 8798 ft 162 kts 206°
2026-05-06 18:59 1.42137 -77.34447 8809 ft 164 kts 204°
2026-05-06 18:59 1.41115 -77.34957 8808 ft 164 kts 204°
2026-05-06 18:59 1.40094 -77.35467 8809 ft 164 kts 205°
2026-05-06 19:00 1.39073 -77.35979 8812 ft 164 kts 205°
2026-05-06 19:00 1.38030 -77.36431 8732 ft 166 kts 194°
2026-05-06 19:00 1.36905 -77.36534 8457 ft 160 kts 174°
2026-05-06 19:00 1.35838 -77.36258 8223 ft 158 kts 156°
2026-05-06 19:01 1.34921 -77.35661 7997 ft 158 kts 137°
2026-05-06 19:01 1.34246 -77.34800 7763 ft 158 kts 119°
2026-05-06 19:01 1.33887 -77.33767 7546 ft 159 kts 100°
2026-05-06 19:01 1.33886 -77.32665 7321 ft 160 kts 81°
2026-05-06 19:02 1.34245 -77.31617 7093 ft 160 kts 62°
2026-05-06 19:02 1.34930 -77.30739 6854 ft 161 kts 42°
2026-05-06 19:02 1.35863 -77.30134 6628 ft 161 kts 23°
2026-05-06 19:02 1.36931 -77.29818 6398 ft 160 kts 14°
2026-05-06 19:03 1.37995 -77.29544 6161 ft 159 kts 15°
2026-05-06 19:03 1.39058 -77.29256 5942 ft 154 kts 14°
2026-05-06 19:03 1.39904 -77.29033 5891 ft 84 kts 14°
2026-05-06 19:03 1.40301 -77.28929 5875 ft 45 kts 14°
2026-05-06 19:04 1.40523 -77.28871 5860 ft 21 kts 15°
2026-05-06 19:04 1.40623 -77.28857 5852 ft 6 kts 34°
2026-05-06 19:04 1.40607 -77.28848 5853 ft 6 kts 180°
2026-05-06 19:04 1.40550 -77.28861 5856 ft 7 kts 197°
2026-05-06 19:05 1.40505 -77.28873 5858 ft 8 kts 194°
2026-05-06 19:05 1.40443 -77.28889 5862 ft 11 kts 194°
2026-05-06 19:05 1.40364 -77.28909 5875 ft 13 kts 194°
2026-05-06 19:05 1.40272 -77.28933 5876 ft 14 kts 195°
2026-05-06 19:06 1.40170 -77.28962 5881 ft 16 kts 195°
2026-05-06 19:06 1.40057 -77.28991 5883 ft 17 kts 194°
2026-05-06 19:06 1.39937 -77.29020 5894 ft 16 kts 192°
2026-05-06 19:06 1.39837 -77.29043 5895 ft 13 kts 197°
2026-05-06 19:07 1.39765 -77.29066 5899 ft 8 kts 197°
2026-05-06 19:07 1.39730 -77.29076 5901 ft 3 kts 197°
2026-05-06 19:07 1.39700 -77.29085 5902 ft 0 kts 196°
2026-05-06 19:08 1.39700 -77.29086 5902 ft 1 kts 196°
2026-05-06 19:09 1.39699 -77.29086 5902 ft 0 kts 196°
2026-05-06 19:09 1.39676 -77.29074 5903 ft 7 kts 136°
2026-05-06 19:09 1.39663 -77.29035 5904 ft 5 kts 102°
2026-05-06 19:09 1.39649 -77.29022 5905 ft 3 kts 161°
2026-05-06 19:10 1.39631 -77.29022 5906 ft 1 kts 188°
2026-05-06 19:10 1.39612 -77.29027 5907 ft 7 kts 196°
2026-05-06 19:10 1.39591 -77.29031 5908 ft 1 kts 165°
2026-05-06 19:10 1.39579 -77.29011 5908 ft 5 kts 107°
2026-05-06 19:11 1.39574 -77.28991 5908 ft 0 kts 104°